TimeCDT,TemperatureF,Dew PointF,Humidity,Sea Level PressureIn,VisibilityMPH,Wind Direction,Wind SpeedMPH,Gust SpeedMPH,PrecipitationIn,Events,Conditions,WindDirDegrees,DateUTC
12:15 AM,73.4,53.6,50,30.17,10.0,SE,8.1,-,N/A,,Clear,140,2013-09-05 05:15:00
12:35 AM,73.4,51.8,47,30.18,10.0,SSE,6.9,-,N/A,,Clear,150,2013-09-05 05:35:00
12:55 AM,71.6,51.8,50,30.18,10.0,SSE,9.2,-,N/A,,Clear,150,2013-09-05 05:55:00
1:15 AM,71.6,51.8,50,30.18,10.0,SSE,6.9,-,N/A,,Clear,150,2013-09-05 06:15:00
1:35 AM,71.6,50.0,46,30.18,10.0,SSE,8.1,-,N/A,,Clear,160,2013-09-05 06:35:00
1:55 AM,71.6,48.2,43,30.19,10.0,SSE,6.9,-,N/A,,Clear,160,2013-09-05 06:55:00
2:15 AM,69.8,48.2,46,30.18,10.0,SSE,10.4,-,N/A,,Clear,160,2013-09-05 07:15:00
2:35 AM,69.8,48.2,46,30.18,10.0,SSE,9.2,-,N/A,,Clear,160,2013-09-05 07:35:00
2:55 AM,69.8,48.2,46,30.18,10.0,South,9.2,-,N/A,,Clear,170,2013-09-05 07:55:00
3:15 AM,69.8,48.2,46,30.18,10.0,South,8.1,-,N/A,,Clear,170,2013-09-05 08:15:00
3:35 AM,69.8,48.2,46,30.18,10.0,South,6.9,-,N/A,,Clear,180,2013-09-05 08:35:00
3:55 AM,68.0,46.4,46,30.18,10.0,South,6.9,-,N/A,,Clear,170,2013-09-05 08:55:00
4:15 AM,68.0,48.2,49,30.18,10.0,South,6.9,-,N/A,,Clear,190,2013-09-05 09:15:00
4:35 AM,66.2,46.4,49,30.18,10.0,South,6.9,-,N/A,,Clear,190,2013-09-05 09:35:00
4:55 AM,64.4,46.4,52,30.18,10.0,SSW,8.1,-,N/A,,Clear,200,2013-09-05 09:55:00
5:15 AM,64.4,48.2,56,30.18,10.0,South,6.9,-,N/A,,Clear,190,2013-09-05 10:15:00
5:35 AM,64.4,48.2,56,30.18,10.0,SSW,6.9,-,N/A,,Clear,200,2013-09-05 10:35:00
5:55 AM,64.4,48.2,56,30.18,10.0,South,9.2,-,N/A,,Clear,190,2013-09-05 10:55:00
6:15 AM,66.2,48.2,52,30.18,10.0,South,9.2,-,N/A,,Clear,180,2013-09-05 11:15:00
6:35 AM,64.4,48.2,56,30.18,10.0,South,8.1,-,N/A,,Clear,180,2013-09-05 11:35:00
6:55 AM,64.4,48.2,56,30.18,10.0,South,8.1,-,N/A,,Clear,170,2013-09-05 11:55:00
7:15 AM,64.4,48.2,56,30.19,10.0,South,8.1,-,N/A,,Clear,190,2013-09-05 12:15:00
7:35 AM,64.4,48.2,56,30.19,10.0,South,6.9,-,N/A,,Clear,190,2013-09-05 12:35:00
7:55 AM,64.4,48.2,56,30.19,10.0,South,4.6,-,N/A,,Clear,180,2013-09-05 12:55:00
8:15 AM,66.2,48.2,52,30.20,10.0,SSE,5.8,-,N/A,,Clear,160,2013-09-05 13:15:00
8:35 AM,69.8,51.8,53,30.20,10.0,SSE,5.8,-,N/A,,Clear,160,2013-09-05 13:35:00
8:55 AM,71.6,51.8,50,30.20,10.0,SSE,9.2,-,N/A,,Clear,160,2013-09-05 13:55:00
9:15 AM,75.2,51.8,44,30.20,10.0,South,12.7,-,N/A,,Clear,170,2013-09-05 14:15:00
9:35 AM,78.8,51.8,39,30.20,10.0,South,13.8,-,N/A,,Clear,180,2013-09-05 14:35:00
9:55 AM,80.6,50.0,34,30.20,10.0,South,11.5,-,N/A,,Clear,180,2013-09-05 14:55:00
10:15 AM,82.4,50.0,32,30.20,10.0,SSW,12.7,-,N/A,,Clear,200,2013-09-05 15:15:00
10:35 AM,84.2,50.0,30,30.20,10.0,South,13.8,-,N/A,,Clear,180,2013-09-05 15:35:00
10:55 AM,86.0,48.2,27,30.20,10.0,South,12.7,-,N/A,,Clear,180,2013-09-05 15:55:00
11:15 AM,87.8,50.0,27,30.20,10.0,South,15.0,19.6,N/A,,Clear,190,2013-09-05 16:15:00
11:35 AM,89.6,50.0,26,30.20,10.0,South,15.0,18.4,N/A,,Clear,190,2013-09-05 16:35:00
11:55 AM,91.4,48.2,23,30.20,10.0,SSW,11.5,-,N/A,,Clear,210,2013-09-05 16:55:00
12:15 PM,91.4,48.2,23,30.20,10.0,South,16.1,21.9,N/A,,Clear,180,2013-09-05 17:15:00
12:35 PM,93.2,48.2,21,30.19,10.0,South,16.1,21.9,N/A,,Clear,190,2013-09-05 17:35:00
12:55 PM,93.2,48.2,21,30.18,10.0,South,13.8,19.6,N/A,,Clear,190,2013-09-05 17:55:00
1:15 PM,95.0,48.2,20,30.17,10.0,South,12.7,21.9,N/A,,Clear,180,2013-09-05 18:15:00
1:35 PM,95.0,48.2,20,30.17,10.0,SSE,13.8,21.9,N/A,,Clear,160,2013-09-05 18:35:00
1:55 PM,96.8,46.4,18,30.17,10.0,South,12.7,17.3,N/A,,Clear,190,2013-09-05 18:55:00
2:15 PM,96.8,48.2,19,30.16,10.0,SSE,11.5,21.9,N/A,,Clear,160,2013-09-05 19:15:00
2:35 PM,96.8,48.2,19,30.16,10.0,SSE,13.8,-,N/A,,Clear,150,2013-09-05 19:35:00
2:55 PM,96.8,48.2,19,30.16,10.0,SE,15.0,21.9,N/A,,Clear,140,2013-09-05 19:55:00
3:15 PM,96.8,48.2,19,30.15,10.0,South,12.7,18.4,N/A,,Clear,170,2013-09-05 20:15:00
3:35 PM,96.8,46.4,18,30.15,10.0,South,17.3,21.9,N/A,,Clear,190,2013-09-05 20:35:00
3:55 PM,96.8,46.4,18,30.14,10.0,South,15.0,24.2,N/A,,Clear,170,2013-09-05 20:55:00
4:15 PM,98.6,46.4,17,30.14,10.0,South,10.4,19.6,N/A,,Clear,170,2013-09-05 21:15:00
4:35 PM,96.8,46.4,18,30.13,10.0,South,13.8,20.7,N/A,,Clear,180,2013-09-05 21:35:00
4:55 PM,96.8,46.4,18,30.13,10.0,SSE,13.8,18.4,N/A,,Clear,160,2013-09-05 21:55:00
5:15 PM,96.8,46.4,18,30.13,10.0,South,11.5,21.9,N/A,,Clear,180,2013-09-05 22:15:00
5:35 PM,96.8,46.4,18,30.13,10.0,South,11.5,18.4,N/A,,Clear,190,2013-09-05 22:35:00
5:55 PM,96.8,48.2,19,30.13,10.0,South,12.7,17.3,N/A,,Clear,180,2013-09-05 22:55:00
6:15 PM,96.8,46.4,18,30.12,10.0,SSE,10.4,-,N/A,,Clear,160,2013-09-05 23:15:00
6:35 PM,95.0,46.4,19,30.12,10.0,SE,10.4,-,N/A,,Clear,140,2013-09-05 23:35:00
6:55 PM,93.2,46.4,20,30.12,10.0,SE,15.0,-,N/A,,Clear,140,2013-09-05 23:55:00
7:15 PM,93.2,44.6,19,30.12,10.0,SE,12.7,-,N/A,,Clear,140,2013-09-06 00:15:00
7:35 PM,91.4,44.6,20,30.12,10.0,SSE,12.7,-,N/A,,Clear,150,2013-09-06 00:35:00
7:55 PM,89.6,42.8,20,30.12,10.0,SE,9.2,-,N/A,,Clear,140,2013-09-06 00:55:00
8:15 PM,86.0,42.8,22,30.12,10.0,SE,9.2,-,N/A,,Clear,140,2013-09-06 01:15:00
8:35 PM,82.4,42.8,25,30.12,10.0,SE,9.2,-,N/A,,Clear,140,2013-09-06 01:35:00
8:55 PM,80.6,42.8,26,30.13,10.0,SE,9.2,-,N/A,,Clear,140,2013-09-06 01:55:00
9:15 PM,78.8,44.6,30,30.14,10.0,SE,9.2,-,N/A,,Clear,140,2013-09-06 02:15:00
9:35 PM,78.8,44.6,30,30.14,10.0,SE,9.2,-,N/A,,Clear,140,2013-09-06 02:35:00
9:55 PM,77.0,44.6,32,30.15,10.0,SE,9.2,-,N/A,,Clear,140,2013-09-06 02:55:00
10:15 PM,75.2,42.8,31,30.16,10.0,SE,9.2,-,N/A,,Clear,140,2013-09-06 03:15:00
10:35 PM,75.2,42.8,31,30.16,10.0,SSE,8.1,-,N/A,,Clear,160,2013-09-06 03:35:00
10:55 PM,73.4,42.8,33,30.16,10.0,South,9.2,-,N/A,,Clear,170,2013-09-06 03:55:00
11:15 PM,73.4,42.8,33,30.17,10.0,South,8.1,-,N/A,,Clear,180,2013-09-06 04:15:00
11:35 PM,73.4,42.8,33,30.17,10.0,South,8.1,-,N/A,,Clear,170,2013-09-06 04:35:00
11:55 PM,71.6,42.8,35,30.17,10.0,South,6.9,-,N/A,,Clear,180,2013-09-06 04:55:00